TimeEEST,TemperatureF,Dew PointF,Humidity,Sea Level PressureIn,VisibilityMPH,Wind Direction,Wind SpeedMPH,Gust SpeedMPH,PrecipitationIn,Events,Conditions,WindDirDegrees,DateUTC
12:20 AM,69.8,53.6,56,29.74,-9999.0,Variable,1.2,-,N/A,,Clear,0,2013-08-22 21:20:00
12:50 AM,71.6,51.8,50,29.74,-9999.0,NE,3.5,-,N/A,,Clear,50,2013-08-22 21:50:00
1:20 AM,69.8,48.2,46,29.74,-9999.0,North,3.5,-,N/A,,Clear,10,2013-08-22 22:20:00
1:50 AM,66.2,51.8,60,29.74,-9999.0,NNE,4.6,-,N/A,,Clear,20,2013-08-22 22:50:00
2:20 AM,66.2,50.0,56,29.74,-9999.0,NNE,5.8,-,N/A,,Clear,30,2013-08-22 23:20:00
2:50 AM,66.2,50.0,56,29.74,-9999.0,NNE,5.8,-,N/A,,Clear,20,2013-08-22 23:50:00
3:20 AM,64.4,50.0,59,29.74,-9999.0,NNE,5.8,-,N/A,,Clear,20,2013-08-23 00:20:00
3:50 AM,64.4,53.6,68,29.74,-9999.0,North,4.6,-,N/A,,Clear,10,2013-08-23 00:50:00
4:20 AM,64.4,51.8,64,29.74,-9999.0,NE,3.5,-,N/A,,Clear,40,2013-08-23 01:20:00
4:50 AM,64.4,53.6,68,29.74,-9999.0,Variable,2.3,-,N/A,,Clear,0,2013-08-23 01:50:00
5:20 AM,62.6,53.6,72,29.74,-9999.0,NNE,5.8,-,N/A,,Clear,20,2013-08-23 02:20:00
5:50 AM,62.6,50.0,63,29.74,-9999.0,NNE,5.8,-,N/A,,Clear,20,2013-08-23 02:50:00
6:20 AM,64.4,50.0,59,29.77,-9999.0,Variable,2.3,-,N/A,,Clear,0,2013-08-23 03:20:00
7:20 AM,73.4,51.8,47,29.77,-9999.0,Calm,Calm,-,N/A,,Clear,0,2013-08-23 04:20:00
7:50 AM,75.2,50.0,41,29.77,-9999.0,Variable,1.2,-,N/A,,Clear,0,2013-08-23 04:50:00
8:20 AM,80.6,44.6,28,29.77,-9999.0,Variable,1.2,-,N/A,,Clear,0,2013-08-23 05:20:00
9:20 AM,86.0,46.4,25,29.77,-9999.0,Variable,2.3,-,N/A,,Clear,0,2013-08-23 06:20:00
9:50 AM,91.4,39.2,16,29.77,-9999.0,Variable,1.2,-,N/A,,Clear,0,2013-08-23 06:50:00
10:20 AM,93.2,39.2,15,29.77,-9999.0,Variable,2.3,-,N/A,,Clear,0,2013-08-23 07:20:00
10:50 AM,96.8,41.0,15,29.77,-9999.0,Variable,3.5,-,N/A,,Clear,0,2013-08-23 07:50:00
11:20 AM,96.8,41.0,15,29.74,-9999.0,West,3.5,-,N/A,,Clear,260,2013-08-23 08:20:00
11:50 AM,100.4,41.0,13,29.74,-9999.0,West,5.8,-,N/A,,Clear,270,2013-08-23 08:50:00
12:20 PM,102.2,37.4,11,29.74,6.2,Variable,4.6,-,N/A,,Partly Cloudy,0,2013-08-23 09:20:00
12:50 PM,100.4,35.6,11,29.71,6.2,NW,8.1,-,N/A,,Partly Cloudy,310,2013-08-23 09:50:00
1:20 PM,102.2,35.6,10,29.71,6.2,Variable,6.9,-,N/A,,Partly Cloudy,0,2013-08-23 10:20:00
1:50 PM,102.2,37.4,11,29.71,6.2,Variable,4.6,-,N/A,,Partly Cloudy,0,2013-08-23 10:50:00
2:20 PM,102.2,37.4,11,29.68,6.2,NW,8.1,-,N/A,,Partly Cloudy,310,2013-08-23 11:20:00
2:50 PM,104.0,37.4,10,29.68,6.2,West,8.1,-,N/A,,Partly Cloudy,260,2013-08-23 11:50:00
3:20 PM,104.0,37.4,10,29.68,6.2,NNW,4.6,-,N/A,,Partly Cloudy,330,2013-08-23 12:20:00
3:50 PM,104.0,37.4,10,29.65,6.2,Variable,4.6,-,N/A,,Partly Cloudy,0,2013-08-23 12:50:00
4:20 PM,104.0,37.4,10,29.65,6.2,South,3.5,-,N/A,,Partly Cloudy,180,2013-08-23 13:20:00
4:50 PM,102.2,39.2,11,29.65,6.2,SW,11.5,-,N/A,,Partly Cloudy,220,2013-08-23 13:50:00
5:20 PM,100.4,41.0,13,29.65,6.2,SW,11.5,-,N/A,,Partly Cloudy,230,2013-08-23 14:20:00
5:50 PM,98.6,41.0,14,29.65,-9999.0,WSW,16.1,-,N/A,,Clear,240,2013-08-23 14:50:00
6:20 PM,95.0,42.8,16,29.68,-9999.0,SW,13.8,-,N/A,,Clear,230,2013-08-23 15:20:00
6:50 PM,89.6,46.4,22,29.68,-9999.0,SW,6.9,-,N/A,,Clear,220,2013-08-23 15:50:00
7:20 PM,86.0,46.4,25,29.71,-9999.0,SSW,6.9,-,N/A,,Clear,210,2013-08-23 16:20:00
7:50 PM,86.0,44.6,23,29.71,-9999.0,SSW,5.8,-,N/A,,Clear,210,2013-08-23 16:50:00
8:20 PM,86.0,44.6,23,29.74,-9999.0,Variable,2.3,-,N/A,,Clear,0,2013-08-23 17:20:00
8:50 PM,84.2,44.6,25,29.74,-9999.0,SSW,3.5,-,N/A,,Clear,210,2013-08-23 17:50:00
9:20 PM,84.2,44.6,25,29.74,-9999.0,South,3.5,-,N/A,,Clear,170,2013-08-23 18:20:00
9:50 PM,80.6,44.6,28,29.74,-9999.0,Calm,Calm,-,N/A,,Clear,0,2013-08-23 18:50:00
10:20 PM,82.4,44.6,26,29.74,-9999.0,SE,2.3,-,N/A,,Clear,130,2013-08-23 19:20:00
10:50 PM,80.6,44.6,28,29.74,-9999.0,Calm,Calm,-,N/A,,Clear,0,2013-08-23 19:50:00
11:20 PM,75.2,44.6,34,29.74,-9999.0,Calm,Calm,-,N/A,,Clear,0,2013-08-23 20:20:00
11:50 PM,75.2,46.4,36,29.74,-9999.0,Calm,Calm,-,N/A,,Clear,0,2013-08-23 20:50:00